Hourly Data Report for October 30, 2015

All times are specified in Local Standard Time (LST). Add 1 hour to adjust for Daylight Saving Time where and when it is observed.

KUGLUKTUK A
NUNAVUT

67°49'00.000" N
115°08'38.000" W
22.60 m
2300903
71938
YCO

Download Data

Hourly Data (October 2015)
Hourly Data Report for October 30, 2015
Temp Definition
°C
Dew Point Temp Definition
°C
Rel Hum Definition
%
Wind Dir Definition
10's deg

Wind Spd Definition
km/h
Visibility Definition
km
Stn Press Definition
kPa
Hmdx Definition


Wind Chill Definition


Weather Definition


TIME
00:00 Legend Double Dagger -8.4 -10.6 84 10 24 3.2 99.91   -17 Snow,Blowing Snow
01:00 Legend Double Dagger -8.7 -11.4 81 10 20 6.4 99.89   -16 Snow,Blowing Snow
02:00 Legend Double Dagger -9.3 -12.8 76 10 20 12.9 99.87   -17 Snow,Blowing Snow
03:00 Legend Double Dagger -9.3 -12.8 76 10 26 12.9 99.85   -18 Snow,Blowing Snow
04:00 Legend Double Dagger -9.5 -13.0 76 11 23 16.1 99.82   -18 Snow,Blowing Snow
05:00 Legend Double Dagger -9.8 -13.3 76 11 23 16.1 99.78   -18 Snow,Blowing Snow
06:00 Legend Double Dagger -9.9 -13.9 73 11 25 12.9 99.77   -19 Snow,Blowing Snow
07:00 Legend Double Dagger -10.2 -13.5 77 11 21 16.1 99.74   -18 Snow,Blowing Snow
08:00 Legend Double Dagger -10.7 -13.5 80 11 22 12.9 99.75   -19 Snow
09:00 Legend Double Dagger -10.7 -13.5 80 11 24 8.1 99.73   -19 Snow,Blowing Snow
10:00 Legend Double Dagger -10.5 -13.5 79 11 22 6.4 99.72   -19 Snow,Blowing Snow
11:00 Legend Double Dagger -10.5 -14.6 72 11 20 16.1 99.72   -18 Snow,Blowing Snow
12:00 Legend Double Dagger -10.8 -14.7 73 11 18 24.1 99.75   -18 Snow
13:00 Legend Double Dagger -10.6 -14.7 72 11 17 24.1 99.75   -18 Snow
14:00 Legend Double Dagger -10.8 -14.9 72 11 17 24.1 99.76   -18 Snow
15:00 Legend Double Dagger -10.9 -14.7 74 11 15 16.1 99.79   -18 Snow
16:00 Legend Double Dagger -11.3 -14.6 77 11 16 16.1 99.81   -19 Snow
17:00 Legend Double Dagger -11.7 -14.8 78 11 18 9.7 99.82   -20 Snow
18:00 Legend Double Dagger -12.1 -15.0 79 12 11 9.7 99.85   -18 Snow
19:00 Legend Double Dagger -12.4 -15.2 80 11 12 12.9 99.88   -19 Ice Crystals
20:00 Legend Double Dagger -12.4 -15.2 80 11 13 16.1 99.91   -19 Ice Crystals
21:00 Legend Double Dagger -12.6 -15.1 82 10 12 19.3 99.95   -19 Ice Crystals
22:00 Legend Double Dagger -12.7 -14.7 85 10 11 12.9 99.98   -19 Ice Crystals
23:00 Legend Double Dagger -12.9 -14.8 86 11 9 16.1 100.00   -18 Ice Crystals

Notes on Data Quality.

Legend

  • E = Estimated
  • M = Missing
  • NA = Not Available
  • ‡ = Partner data that is not subject to review by the National Climate Archives
Date modified: